This demonstration page uses our WeatherBlox Daily Observations layout. Learn more.

Left ArrowRight Arrow

Hourly Observations for September 15, 2018

Temp ( °F °C ) Dew Point ( °F °C ) Humidity (%) Winds ( mph kmh ) Pressure ( in mb ) Visibility ( mi km ) Precip ( " mm )
12:57 am 00:57 Clear 71 21.7 66 18.9 84 84 S 9 15 29.99 1016 10 16 0.00 0.00
1:57 am 01:57 Clear 68 20 66 18.9 93 93 SSE 6 9 30.00 1016 10 16 0.00 0.00
2:57 am 02:57 Clear 67 19.4 65 18.3 93 93 S 8 13 30.01 1016 10 16 0.00 0.00
3:57 am 03:57 Clear 66 18.9 64 17.8 93 93 S 7 11 30.01 1016 10 16 0.00 0.00
4:57 am 04:57 Clear 67 19.4 65 18.3 93 93 S 10 17 30.01 1016 10 16 0.00 0.00
5:57 am 05:57 Clear 66 18.9 64 17.8 93 93 S 7 11 30.02 1017 10 16 0.00 0.00
6:57 am 06:57 Clear 66 18.9 64 17.8 93 93 S 8 13 30.03 1017 10 16 0.00 0.00
7:57 am 07:57 Sunny 68 20 65 18.3 90 90 S 9 15 30.04 1017 10 16 0.00 0.00
8:57 am 08:57 Sunny 71 21.7 66 18.9 84 84 S 12 19 30.06 1018 10 16 0.00 0.00
9:57 am 09:57 Sunny 76 24.4 67 19.4 74 74 S 15 24 30.06 1018 10 16 0.00 0.00
10:57 am 10:57 Sunny 81 27.2 67 19.4 62 62 S 17 28 30.05 1018 10 16 0.00 0.00
11:57 am 11:57 Sunny 84 28.9 67 19.4 57 57 S 16 26 30.05 1018 10 16 0.00 0.00
12:57 pm 12:57 Sunny 87 30.6 66 18.9 50 50 SSE 20 31 30.04 1017 10 16 0.00 0.00
1:57 pm 13:57 Sunny 88 31.1 66 18.9 48 48 S 18 30 30.03 1017 10 16 0.00 0.00
2:57 pm 14:57 Mostly Sunny 89 31.7 66 18.9 47 47 S 22 35 30.01 1016 10 16 0.00 0.00
3:57 pm 15:57 Mostly Sunny 88 31.1 65 18.3 46 46 S 21 33 30.00 1016 10 16 0.00 0.00
4:57 pm 16:57 Mostly Sunny 88 31.1 64 17.8 45 45 S 21 33 29.99 1016 10 16 0.00 0.00
5:57 pm 17:57 Sunny 87 30.6 64 17.8 46 46 S 20 31 29.99 1016 10 16 0.00 0.00
6:57 pm 18:57 Sunny 84 28.9 65 18.3 53 53 SSE 15 24 29.99 1016 10 16 0.00 0.00
7:57 pm 19:57 Clear 79 26.1 65 18.3 62 62 SSE 8 13 30.00 1016 10 16 0.00 0.00
8:57 pm 20:57 Clear 74 23.3 65 18.3 74 74 SE 8 13 30.01 1016 10 16 0.00 0.00
9:57 pm 21:57 Clear 74 23.3 65 18.3 74 74 SSE 10 17 30.01 1016 10 16 0.00 0.00
10:57 pm 22:57 Clear 72 22.2 65 18.3 79 79 SSE 12 19 30.01 1016 10 16 0.00 0.00

Powered by AerisWeather